contact:dominique.lefevre@mio.osupytheas.fr, maurice.libes@osupytheas.fr, didier.mallarino@osupytheas.fr
Project:EMSO http://www.emso-fr.org/EMSO-France
Depth: 2436.0 m
Title:EMSO Ligure Ouest : Data MII capteur MICROCAT
DateTime_Computer,Latitude,Longitude,Temperature,Conductivity,Pressure,DateTime_Instrument
DateTime_Computer,Latitude,Longitude,degC,S m-1,dbar,DateTime_Instrument
2023-05-18T00:02:30Z,42.805,6.029,13.3014,4.60072,2470.614,2023-5-18T02:04:42Z
2023-05-18T00:05:33Z,42.805,6.029,13.3019,4.60074,2470.577,2023-5-18T02:07:45Z
2023-05-18T00:08:36Z,42.805,6.029,13.3018,4.60074,2470.6,2023-5-18T02:10:48Z
2023-05-18T00:11:39Z,42.805,6.029,13.3018,4.60074,2470.577,2023-5-18T02:13:51Z
2023-05-18T00:14:42Z,42.805,6.029,13.3018,4.60075,2470.577,2023-5-18T02:16:54Z
2023-05-18T00:17:45Z,42.805,6.029,13.3015,4.60073,2470.553,2023-5-18T02:19:57Z
2023-05-18T00:20:48Z,42.805,6.029,13.3018,4.60072,2470.6,2023-5-18T02:23:00Z
2023-05-18T00:23:52Z,42.805,6.029,13.3018,4.60076,2470.591,2023-5-18T02:26:03Z
2023-05-18T00:26:55Z,42.805,6.029,13.3017,4.60076,2470.553,2023-5-18T02:29:06Z
2023-05-18T00:29:58Z,42.805,6.029,13.3019,4.60074,2470.553,2023-5-18T02:32:09Z
2023-05-18T00:33:01Z,42.805,6.029,13.3015,4.60073,2470.614,2023-5-18T02:35:12Z
2023-05-18T00:36:04Z,42.805,6.029,13.3019,4.60075,2470.6,2023-5-18T02:38:16Z
2023-05-18T00:39:07Z,42.805,6.029,13.3021,4.60073,2470.6,2023-5-18T02:41:19Z
2023-05-18T00:42:10Z,42.805,6.029,13.3018,4.60074,2470.577,2023-5-18T02:44:22Z
2023-05-18T00:45:13Z,42.805,6.029,13.3015,4.60074,2470.577,2023-5-18T02:47:25Z
2023-05-18T00:48:16Z,42.805,6.029,13.3019,4.60073,2470.577,2023-5-18T02:50:28Z
2023-05-18T00:51:19Z,42.805,6.029,13.3017,4.60077,2470.577,2023-5-18T02:53:31Z
2023-05-18T00:54:22Z,42.805,6.029,13.3015,4.60075,2470.577,2023-5-18T02:56:34Z
2023-05-18T00:57:25Z,42.805,6.029,13.3018,4.60075,2470.591,2023-5-18T02:59:37Z
2023-05-18T01:00:29Z,42.805,6.029,13.3015,4.60075,2470.577,2023-5-18T03:02:40Z
2023-05-18T01:03:32Z,42.805,6.029,13.3015,4.60079,2470.577,2023-5-18T03:05:43Z
2023-05-18T01:06:35Z,42.805,6.029,13.3017,4.60076,2470.591,2023-5-18T03:08:46Z
2023-05-18T01:09:38Z,42.805,6.029,13.3015,4.60074,2470.614,2023-5-18T03:11:49Z
2023-05-18T01:12:41Z,42.805,6.029,13.3017,4.60073,2470.637,2023-5-18T03:14:53Z
2023-05-18T01:15:44Z,42.805,6.029,13.3019,4.60074,2470.614,2023-5-18T03:17:56Z
2023-05-18T01:18:47Z,42.805,6.029,13.3016,4.60074,2470.591,2023-5-18T03:20:59Z
2023-05-18T01:21:50Z,42.805,6.029,13.3016,4.60074,2470.577,2023-5-18T03:24:02Z
2023-05-18T01:24:53Z,42.805,6.029,13.3017,4.60074,2470.6,2023-5-18T03:27:05Z
2023-05-18T01:27:56Z,42.805,6.029,13.3019,4.60074,2470.624,2023-5-18T03:30:08Z
2023-05-18T01:30:59Z,42.805,6.029,13.3014,4.60074,2470.6,2023-5-18T03:33:11Z
2023-05-18T01:34:02Z,42.805,6.029,13.3016,4.60073,2470.6,2023-5-18T03:36:14Z
2023-05-18T01:37:05Z,42.805,6.029,13.3016,4.60074,2470.6,2023-5-18T03:39:17Z
2023-05-18T01:40:09Z,42.805,6.029,13.3015,4.60076,2470.614,2023-5-18T03:42:20Z
2023-05-18T01:43:12Z,42.805,6.029,13.3015,4.60074,2470.591,2023-5-18T03:45:23Z
2023-05-18T01:46:15Z,42.805,6.029,13.3017,4.60073,2470.614,2023-5-18T03:48:26Z
2023-05-18T01:49:18Z,42.805,6.029,13.3017,4.60074,2470.637,2023-5-18T03:51:29Z
2023-05-18T01:52:21Z,42.805,6.029,13.3018,4.60074,2470.637,2023-5-18T03:54:33Z
2023-05-18T01:55:24Z,42.805,6.029,13.3014,4.60077,2470.614,2023-5-18T03:57:36Z
2023-05-18T01:58:27Z,42.805,6.029,13.3019,4.60075,2470.624,2023-5-18T04:00:39Z
2023-05-18T02:01:30Z,42.805,6.029,13.3019,4.60076,2470.6,2023-5-18T04:03:42Z
2023-05-18T02:04:33Z,42.805,6.029,13.3016,4.60074,2470.6,2023-5-18T04:06:45Z
2023-05-18T02:07:36Z,42.805,6.029,13.3015,4.60074,2470.6,2023-5-18T04:09:48Z
2023-05-18T02:10:39Z,42.805,6.029,13.3020,4.60076,2470.6,2023-5-18T04:12:51Z
2023-05-18T02:13:42Z,42.805,6.029,13.3015,4.60074,2470.624,2023-5-18T04:15:54Z
2023-05-18T02:16:46Z,42.805,6.029,13.3018,4.60073,2470.624,2023-5-18T04:18:57Z
2023-05-18T02:19:49Z,42.805,6.029,13.3020,4.60074,2470.661,2023-5-18T04:22:00Z
2023-05-18T02:22:52Z,42.805,6.029,13.3015,4.60074,2470.637,2023-5-18T04:25:03Z
2023-05-18T02:25:55Z,42.805,6.029,13.3017,4.60076,2470.661,2023-5-18T04:28:06Z
2023-05-18T02:28:58Z,42.805,6.029,13.3017,4.60074,2470.646,2023-5-18T04:31:10Z
2023-05-18T02:32:01Z,42.805,6.029,13.3017,4.60076,2470.67,2023-5-18T04:34:13Z
2023-05-18T02:35:04Z,42.805,6.029,13.3017,4.60076,2470.646,2023-5-18T04:37:16Z
2023-05-18T02:38:07Z,42.805,6.029,13.3021,4.60074,2470.637,2023-5-18T04:40:19Z
2023-05-18T02:41:10Z,42.805,6.029,13.3016,4.60076,2470.646,2023-5-18T04:43:22Z
2023-05-18T02:44:13Z,42.805,6.029,13.3017,4.60077,2470.67,2023-5-18T04:46:25Z
2023-05-18T02:47:16Z,42.805,6.029,13.3020,4.60074,2470.646,2023-5-18T04:49:28Z
2023-05-18T02:50:19Z,42.805,6.029,13.3019,4.60078,2470.684,2023-5-18T04:52:31Z
2023-05-18T02:53:22Z,42.805,6.029,13.3019,4.60081,2470.656,2023-5-18T04:55:34Z
2023-05-18T02:56:26Z,42.805,6.029,13.3018,4.60074,2470.67,2023-5-18T04:58:37Z
2023-05-18T02:59:29Z,42.805,6.029,13.3018,4.60076,2470.646,2023-5-18T05:01:40Z
2023-05-18T03:02:32Z,42.805,6.029,13.3016,4.60075,2470.661,2023-5-18T05:04:43Z
2023-05-18T03:05:35Z,42.805,6.029,13.3015,4.60076,2470.646,2023-5-18T05:07:47Z
2023-05-18T03:08:38Z,42.805,6.029,13.3018,4.60074,2470.67,2023-5-18T05:10:50Z
2023-05-18T03:11:41Z,42.805,6.029,13.3021,4.60073,2470.646,2023-5-18T05:13:53Z
2023-05-18T03:14:44Z,42.805,6.029,13.3016,4.60074,2470.661,2023-5-18T05:16:56Z
2023-05-18T03:17:47Z,42.805,6.029,13.3019,4.60077,2470.67,2023-5-18T05:19:59Z
2023-05-18T03:20:50Z,42.805,6.029,13.3021,4.60075,2470.67,2023-5-18T05:23:02Z
2023-05-18T03:23:53Z,42.805,6.029,13.3017,4.60080,2470.67,2023-5-18T05:26:05Z
2023-05-18T03:26:56Z,42.805,6.029,13.3019,4.60077,2470.684,2023-5-18T05:29:08Z
2023-05-18T03:29:59Z,42.805,6.029,13.3015,4.60078,2470.67,2023-5-18T05:32:11Z
2023-05-18T03:33:03Z,42.805,6.029,13.3018,4.60075,2470.693,2023-5-18T05:35:14Z
2023-05-18T03:36:06Z,42.805,6.029,13.3018,4.60079,2470.707,2023-5-18T05:38:17Z
2023-05-18T03:39:09Z,42.805,6.029,13.3013,4.60077,2470.707,2023-5-18T05:41:20Z
2023-05-18T03:42:12Z,42.805,6.029,13.3019,4.60081,2470.693,2023-5-18T05:44:24Z
2023-05-18T03:45:15Z,42.805,6.029,13.3015,4.60074,2470.707,2023-5-18T05:47:27Z
2023-05-18T03:48:18Z,42.805,6.029,13.3019,4.60077,2470.717,2023-5-18T05:50:30Z
2023-05-18T03:51:21Z,42.805,6.029,13.3019,4.60074,2470.717,2023-5-18T05:53:33Z
2023-05-18T03:54:24Z,42.805,6.029,13.3015,4.60077,2470.717,2023-5-18T05:56:36Z
2023-05-18T03:57:27Z,42.805,6.029,13.3020,4.60077,2470.717,2023-5-18T05:59:39Z
2023-05-18T04:00:30Z,42.805,6.029,13.3014,4.60074,2470.73,2023-5-18T06:02:42Z
2023-05-18T04:03:33Z,42.805,6.029,13.3017,4.60078,2470.693,2023-5-18T06:05:45Z
2023-05-18T04:06:36Z,42.805,6.029,13.3021,4.60076,2470.693,2023-5-18T06:08:48Z
2023-05-18T04:09:40Z,42.805,6.029,13.3021,4.60079,2470.73,2023-5-18T06:11:51Z
2023-05-18T04:12:43Z,42.805,6.029,13.3019,4.60079,2470.74,2023-5-18T06:14:54Z
2023-05-18T04:15:46Z,42.805,6.029,13.3019,4.60076,2470.777,2023-5-18T06:17:57Z
2023-05-18T04:18:49Z,42.805,6.029,13.3019,4.60075,2470.717,2023-5-18T06:21:01Z
2023-05-18T04:21:52Z,42.805,6.029,13.3019,4.60079,2470.74,2023-5-18T06:24:04Z
2023-05-18T04:24:55Z,42.805,6.029,13.3016,4.60077,2470.74,2023-5-18T06:27:07Z
2023-05-18T04:27:58Z,42.805,6.029,13.3019,4.60078,2470.777,2023-5-18T06:30:10Z
2023-05-18T04:31:00Z,42.805,6.029,13.3020,4.60078,2470.754,2023-5-18T06:33:12Z
2023-05-18T04:34:03Z,42.805,6.029,13.3020,4.60076,2470.74,2023-5-18T06:36:15Z
2023-05-18T04:37:06Z,42.805,6.029,13.3017,4.60075,2470.787,2023-5-18T06:39:18Z
2023-05-18T04:40:09Z,42.805,6.029,13.3019,4.60075,2470.763,2023-5-18T06:42:21Z
2023-05-18T04:43:12Z,42.805,6.029,13.3016,4.60074,2470.763,2023-5-18T06:45:24Z
2023-05-18T04:46:15Z,42.805,6.029,13.3021,4.60077,2470.74,2023-5-18T06:48:27Z
2023-05-18T04:49:18Z,42.805,6.029,13.3018,4.60077,2470.74,2023-5-18T06:51:30Z
2023-05-18T04:52:22Z,42.805,6.029,13.3020,4.60077,2470.777,2023-5-18T06:54:33Z
2023-05-18T04:55:25Z,42.805,6.029,13.3017,4.60077,2470.763,2023-5-18T06:57:36Z
2023-05-18T04:58:28Z,42.805,6.029,13.3015,4.60077,2470.726,2023-5-18T07:00:39Z
2023-05-18T05:01:31Z,42.805,6.029,13.3022,4.60079,2470.763,2023-5-18T07:03:43Z
2023-05-18T05:04:34Z,42.805,6.029,13.3019,4.60075,2470.787,2023-5-18T07:06:46Z
2023-05-18T05:07:37Z,42.805,6.029,13.3020,4.60075,2470.787,2023-5-18T07:09:49Z
2023-05-18T05:10:40Z,42.805,6.029,13.3017,4.60077,2470.777,2023-5-18T07:12:52Z
2023-05-18T05:13:43Z,42.805,6.029,13.3020,4.60077,2470.777,2023-5-18T07:15:55Z
2023-05-18T05:16:46Z,42.805,6.029,13.3021,4.60081,2470.74,2023-5-18T07:18:58Z
2023-05-18T05:19:49Z,42.805,6.029,13.3016,4.60077,2470.787,2023-5-18T07:22:01Z
2023-05-18T05:22:52Z,42.805,6.029,13.3018,4.60077,2470.763,2023-5-18T07:25:04Z
2023-05-18T05:25:55Z,42.805,6.029,13.3019,4.60079,2470.777,2023-5-18T07:28:07Z
2023-05-18T05:28:58Z,42.805,6.029,13.3021,4.60079,2470.763,2023-5-18T07:31:10Z
2023-05-18T05:32:02Z,42.805,6.029,13.3017,4.60077,2470.81,2023-5-18T07:34:13Z
2023-05-18T05:35:05Z,42.805,6.029,13.3019,4.60078,2470.787,2023-5-18T07:37:16Z
2023-05-18T05:38:08Z,42.805,6.029,13.3016,4.60080,2470.777,2023-5-18T07:40:19Z
2023-05-18T05:41:11Z,42.805,6.029,13.3015,4.60077,2470.763,2023-5-18T07:43:23Z
2023-05-18T05:44:14Z,42.805,6.029,13.3015,4.60077,2470.8,2023-5-18T07:46:26Z
2023-05-18T05:47:17Z,42.805,6.029,13.3016,4.60076,2470.81,2023-5-18T07:49:29Z
2023-05-18T05:50:20Z,42.805,6.029,13.3019,4.60076,2470.787,2023-5-18T07:52:32Z
2023-05-18T05:53:23Z,42.805,6.029,13.3020,4.60076,2470.81,2023-5-18T07:55:35Z
2023-05-18T05:56:26Z,42.805,6.029,13.3022,4.60077,2470.763,2023-5-18T07:58:38Z
2023-05-18T05:59:29Z,42.805,6.029,13.3021,4.60077,2470.787,2023-5-18T08:01:41Z
2023-05-18T06:02:32Z,42.805,6.029,13.3016,4.60076,2470.8,2023-5-18T08:04:44Z
2023-05-18T06:05:36Z,42.805,6.029,13.3019,4.60079,2470.787,2023-5-18T08:07:47Z
2023-05-18T06:08:39Z,42.805,6.029,13.3021,4.60077,2470.8,2023-5-18T08:10:50Z
2023-05-18T06:11:42Z,42.805,6.029,13.3023,4.60077,2470.787,2023-5-18T08:13:53Z
2023-05-18T06:14:45Z,42.805,6.029,13.3017,4.60080,2470.81,2023-5-18T08:16:56Z
2023-05-18T06:17:48Z,42.805,6.029,13.3021,4.60077,2470.8,2023-5-18T08:20:00Z
2023-05-18T06:20:51Z,42.805,6.029,13.3021,4.60079,2470.8,2023-5-18T08:23:03Z
2023-05-18T06:23:54Z,42.805,6.029,13.3017,4.60078,2470.787,2023-5-18T08:26:06Z
2023-05-18T06:26:57Z,42.805,6.029,13.3016,4.60077,2470.763,2023-5-18T08:29:09Z
2023-05-18T06:30:00Z,42.805,6.029,13.3018,4.60077,2470.824,2023-5-18T08:32:12Z
2023-05-18T06:33:03Z,42.805,6.029,13.3021,4.60077,2470.787,2023-5-18T08:35:15Z
2023-05-18T06:36:06Z,42.805,6.029,13.3021,4.60079,2470.763,2023-5-18T08:38:18Z
2023-05-18T06:39:09Z,42.805,6.029,13.3019,4.60078,2470.763,2023-5-18T08:41:21Z
2023-05-18T06:42:12Z,42.805,6.029,13.3021,4.60076,2470.787,2023-5-18T08:44:24Z
2023-05-18T06:45:15Z,42.805,6.029,13.3018,4.60076,2470.787,2023-5-18T08:47:27Z
2023-05-18T06:48:18Z,42.805,6.029,13.3022,4.60077,2470.787,2023-5-18T08:50:30Z
2023-05-18T06:51:21Z,42.805,6.029,13.3019,4.60079,2470.763,2023-5-18T08:53:33Z
2023-05-18T06:54:24Z,42.805,6.029,13.3022,4.60077,2470.763,2023-5-18T08:56:36Z
2023-05-18T06:57:28Z,42.805,6.029,13.3019,4.60081,2470.763,2023-5-18T08:59:39Z
2023-05-18T07:00:31Z,42.805,6.029,13.3024,4.60077,2470.8,2023-5-18T09:02:42Z
2023-05-18T07:03:34Z,42.805,6.029,13.3021,4.60079,2470.75,2023-5-18T09:05:45Z
2023-05-18T07:06:37Z,42.805,6.029,13.3019,4.60077,2470.8,2023-5-18T09:08:49Z
2023-05-18T07:09:40Z,42.805,6.029,13.3015,4.60077,2470.787,2023-5-18T09:11:52Z
2023-05-18T07:12:43Z,42.805,6.029,13.3021,4.60077,2470.81,2023-5-18T09:14:55Z
2023-05-18T07:15:46Z,42.805,6.029,13.3021,4.60077,2470.787,2023-5-18T09:17:58Z
2023-05-18T07:18:49Z,42.805,6.029,13.3020,4.60079,2470.787,2023-5-18T09:21:01Z
2023-05-18T07:21:52Z,42.805,6.029,13.3019,4.60079,2470.777,2023-5-18T09:24:04Z
2023-05-18T07:24:55Z,42.805,6.029,13.3018,4.60076,2470.777,2023-5-18T09:27:07Z
2023-05-18T07:27:58Z,42.805,6.029,13.3021,4.60078,2470.8,2023-5-18T09:30:10Z
2023-05-18T07:31:01Z,42.805,6.029,13.3019,4.60076,2470.787,2023-5-18T09:33:13Z
2023-05-18T07:34:04Z,42.805,6.029,13.3019,4.60079,2470.763,2023-5-18T09:36:16Z
2023-05-18T07:37:08Z,42.805,6.029,13.3017,4.60078,2470.754,2023-5-18T09:39:19Z
2023-05-18T07:40:11Z,42.805,6.029,13.3015,4.60079,2470.754,2023-5-18T09:42:22Z
2023-05-18T07:43:14Z,42.805,6.029,13.3019,4.60079,2470.777,2023-5-18T09:45:25Z
2023-05-18T07:46:17Z,42.805,6.029,13.3017,4.60079,2470.763,2023-5-18T09:48:29Z
2023-05-18T07:49:20Z,42.805,6.029,13.3015,4.60078,2470.74,2023-5-18T09:51:32Z
2023-05-18T07:52:23Z,42.805,6.029,13.3015,4.60077,2470.74,2023-5-18T09:54:35Z
2023-05-18T07:55:26Z,42.805,6.029,13.3019,4.60077,2470.73,2023-5-18T09:57:38Z
2023-05-18T07:58:29Z,42.805,6.029,13.3018,4.60078,2470.74,2023-5-18T10:00:41Z
2023-05-18T08:01:32Z,42.805,6.029,13.3016,4.60075,2470.8,2023-5-18T10:03:44Z
2023-05-18T08:04:35Z,42.805,6.029,13.3018,4.60077,2470.763,2023-5-18T10:06:47Z
2023-05-18T08:07:38Z,42.805,6.029,13.3019,4.60079,2470.74,2023-5-18T10:09:50Z
2023-05-18T08:10:41Z,42.805,6.029,13.3018,4.60077,2470.763,2023-5-18T10:12:53Z
2023-05-18T08:13:45Z,42.805,6.029,13.3020,4.60079,2470.74,2023-5-18T10:15:56Z
2023-05-18T08:16:48Z,42.805,6.029,13.3018,4.60077,2470.763,2023-5-18T10:18:59Z
2023-05-18T08:19:51Z,42.805,6.029,13.3019,4.60076,2470.74,2023-5-18T10:22:03Z
2023-05-18T08:22:54Z,42.805,6.029,13.3016,4.60075,2470.754,2023-5-18T10:25:06Z
2023-05-18T08:25:57Z,42.805,6.029,13.3020,4.60075,2470.74,2023-5-18T10:28:09Z
2023-05-18T08:29:00Z,42.805,6.029,13.3019,4.60077,2470.74,2023-5-18T10:31:12Z
2023-05-18T08:32:02Z,42.805,6.029,13.3021,4.60075,2470.73,2023-5-18T10:34:13Z
2023-05-18T08:35:05Z,42.805,6.029,13.3019,4.60077,2470.74,2023-5-18T10:37:16Z
2023-05-18T08:38:08Z,42.805,6.029,13.3020,4.60073,2470.74,2023-5-18T10:40:19Z
2023-05-18T08:41:11Z,42.805,6.029,13.3017,4.60075,2470.74,2023-5-18T10:43:23Z
2023-05-18T08:44:14Z,42.805,6.029,13.3017,4.60075,2470.717,2023-5-18T10:46:26Z
2023-05-18T08:47:17Z,42.805,6.029,13.3019,4.60078,2470.73,2023-5-18T10:49:29Z
2023-05-18T08:50:20Z,42.805,6.029,13.3021,4.60077,2470.754,2023-5-18T10:52:32Z
2023-05-18T08:53:23Z,42.805,6.029,13.3019,4.60077,2470.717,2023-5-18T10:55:35Z
2023-05-18T08:56:26Z,42.805,6.029,13.3017,4.60079,2470.717,2023-5-18T10:58:38Z
2023-05-18T08:59:29Z,42.805,6.029,13.3024,4.60077,2470.717,2023-5-18T11:01:41Z
2023-05-18T09:02:32Z,42.805,6.029,13.3018,4.60076,2470.679,2023-5-18T11:04:44Z
2023-05-18T09:05:35Z,42.805,6.029,13.3019,4.60078,2470.707,2023-5-18T11:07:47Z
2023-05-18T09:08:39Z,42.805,6.029,13.3019,4.60076,2470.693,2023-5-18T11:10:50Z
2023-05-18T09:11:42Z,42.805,6.029,13.3020,4.60076,2470.693,2023-5-18T11:13:53Z
2023-05-18T09:14:45Z,42.805,6.029,13.3020,4.60081,2470.693,2023-5-18T11:16:56Z
2023-05-18T09:17:48Z,42.805,6.029,13.3017,4.60078,2470.707,2023-5-18T11:20:00Z
2023-05-18T09:20:51Z,42.805,6.029,13.3018,4.60074,2470.707,2023-5-18T11:23:03Z
2023-05-18T09:23:54Z,42.805,6.029,13.3019,4.60076,2470.67,2023-5-18T11:26:06Z
2023-05-18T09:26:57Z,42.805,6.029,13.3014,4.60079,2470.717,2023-5-18T11:29:09Z
2023-05-18T09:30:00Z,42.805,6.029,13.3022,4.60077,2470.693,2023-5-18T11:32:12Z
2023-05-18T09:33:03Z,42.805,6.029,13.3015,4.60079,2470.693,2023-5-18T11:35:15Z
2023-05-18T09:36:06Z,42.805,6.029,13.3016,4.60076,2470.693,2023-5-18T11:38:18Z
2023-05-18T09:39:09Z,42.805,6.029,13.3024,4.60077,2470.693,2023-5-18T11:41:21Z
2023-05-18T09:42:12Z,42.805,6.029,13.3018,4.60074,2470.67,2023-5-18T11:44:24Z
2023-05-18T09:45:16Z,42.805,6.029,13.3019,4.60072,2470.67,2023-5-18T11:47:27Z
2023-05-18T09:48:19Z,42.805,6.029,13.3021,4.60074,2470.693,2023-5-18T11:50:30Z
2023-05-18T09:51:22Z,42.805,6.029,13.3017,4.60073,2470.707,2023-5-18T11:53:33Z
2023-05-18T09:54:25Z,42.805,6.029,13.3019,4.60075,2470.684,2023-5-18T11:56:37Z
2023-05-18T09:57:28Z,42.805,6.029,13.3018,4.60074,2470.693,2023-5-18T11:59:40Z
2023-05-18T10:00:31Z,42.805,6.029,13.3019,4.60073,2470.656,2023-5-18T12:02:43Z
2023-05-18T10:03:34Z,42.805,6.029,13.3022,4.60074,2470.646,2023-5-18T12:05:46Z
2023-05-18T10:06:37Z,42.805,6.029,13.3018,4.60077,2470.637,2023-5-18T12:08:49Z
2023-05-18T10:09:40Z,42.805,6.029,13.3019,4.60077,2470.624,2023-5-18T12:11:52Z
2023-05-18T10:12:43Z,42.805,6.029,13.3022,4.60074,2470.646,2023-5-18T12:14:55Z
2023-05-18T10:15:46Z,42.805,6.029,13.3020,4.60075,2470.661,2023-5-18T12:17:58Z
2023-05-18T10:18:50Z,42.805,6.029,13.3019,4.60077,2470.684,2023-5-18T12:21:01Z
2023-05-18T10:21:53Z,42.805,6.029,13.3014,4.60076,2470.61,2023-5-18T12:24:04Z
2023-05-18T10:24:56Z,42.805,6.029,13.3015,4.60074,2470.661,2023-5-18T12:27:07Z
2023-05-18T10:27:59Z,42.805,6.029,13.3019,4.60078,2470.646,2023-5-18T12:30:11Z
2023-05-18T10:31:02Z,42.805,6.029,13.3020,4.60074,2470.67,2023-5-18T12:33:14Z
2023-05-18T10:34:05Z,42.805,6.029,13.3016,4.60073,2470.661,2023-5-18T12:36:17Z
2023-05-18T10:37:08Z,42.805,6.029,13.3015,4.60074,2470.661,2023-5-18T12:39:20Z
2023-05-18T10:40:11Z,42.805,6.029,13.3019,4.60074,2470.67,2023-5-18T12:42:23Z
2023-05-18T10:43:14Z,42.805,6.029,13.3015,4.60074,2470.67,2023-5-18T12:45:26Z
2023-05-18T10:46:17Z,42.805,6.029,13.3015,4.60074,2470.646,2023-5-18T12:48:29Z
2023-05-18T10:49:20Z,42.805,6.029,13.3018,4.60074,2470.614,2023-5-18T12:51:32Z
2023-05-18T10:52:24Z,42.805,6.029,13.3015,4.60080,2470.624,2023-5-18T12:54:35Z
2023-05-18T10:55:27Z,42.805,6.029,13.3019,4.60074,2470.624,2023-5-18T12:57:38Z
2023-05-18T10:58:30Z,42.805,6.029,13.3019,4.60074,2470.624,2023-5-18T13:00:41Z
2023-05-18T11:01:33Z,42.805,6.029,13.3017,4.60075,2470.637,2023-5-18T13:03:44Z
2023-05-18T11:04:36Z,42.805,6.029,13.3017,4.60073,2470.637,2023-5-18T13:06:48Z
2023-05-18T11:07:39Z,42.805,6.029,13.3017,4.60074,2470.637,2023-5-18T13:09:51Z
2023-05-18T11:10:42Z,42.805,6.029,13.3018,4.60074,2470.624,2023-5-18T13:12:54Z
2023-05-18T11:13:45Z,42.805,6.029,13.3020,4.60075,2470.6,2023-5-18T13:15:57Z
2023-05-18T11:16:48Z,42.805,6.029,13.3014,4.60074,2470.6,2023-5-18T13:19:00Z
2023-05-18T11:19:51Z,42.805,6.029,13.3019,4.60074,2470.6,2023-5-18T13:22:03Z
2023-05-18T11:22:54Z,42.805,6.029,13.3017,4.60073,2470.624,2023-5-18T13:25:06Z
2023-05-18T11:25:57Z,42.805,6.029,13.3018,4.60074,2470.646,2023-5-18T13:28:09Z
2023-05-18T11:29:00Z,42.805,6.029,13.3017,4.60073,2470.637,2023-5-18T13:31:12Z
2023-05-18T11:32:04Z,42.805,6.029,13.3019,4.60074,2470.624,2023-5-18T13:34:15Z
2023-05-18T11:35:07Z,42.805,6.029,13.3018,4.60074,2470.614,2023-5-18T13:37:18Z
2023-05-18T11:38:10Z,42.805,6.029,13.3020,4.60073,2470.614,2023-5-18T13:40:21Z
2023-05-18T11:41:13Z,42.805,6.029,13.3020,4.60075,2470.6,2023-5-18T13:43:25Z
2023-05-18T11:44:16Z,42.805,6.029,13.3014,4.60074,2470.637,2023-5-18T13:46:28Z
2023-05-18T11:47:19Z,42.805,6.029,13.3019,4.60073,2470.614,2023-5-18T13:49:31Z
2023-05-18T11:50:22Z,42.805,6.029,13.3019,4.60074,2470.614,2023-5-18T13:52:34Z
2023-05-18T11:53:25Z,42.805,6.029,13.3015,4.60074,2470.624,2023-5-18T13:55:37Z
2023-05-18T11:56:28Z,42.805,6.029,13.3021,4.60072,2470.6,2023-5-18T13:58:40Z
2023-05-18T11:59:31Z,42.805,6.029,13.3017,4.60073,2470.6,2023-5-18T14:01:43Z
2023-05-18T12:02:34Z,42.805,6.029,13.3022,4.60074,2470.577,2023-5-18T14:04:46Z
2023-05-18T12:05:37Z,42.805,6.029,13.3019,4.60075,2470.577,2023-5-18T14:07:49Z
2023-05-18T12:08:41Z,42.805,6.029,13.3018,4.60074,2470.591,2023-5-18T14:10:52Z
2023-05-18T12:11:44Z,42.805,6.029,13.3021,4.60073,2470.614,2023-5-18T14:13:55Z
2023-05-18T12:14:47Z,42.805,6.029,13.3020,4.60074,2470.591,2023-5-18T14:16:58Z
2023-05-18T12:17:50Z,42.805,6.029,13.3022,4.60074,2470.553,2023-5-18T14:20:02Z
2023-05-18T12:20:53Z,42.805,6.029,13.3019,4.60074,2470.6,2023-5-18T14:23:05Z
2023-05-18T12:23:56Z,42.805,6.029,13.3015,4.60078,2470.6,2023-5-18T14:26:08Z
2023-05-18T12:26:59Z,42.805,6.029,13.3020,4.60075,2470.624,2023-5-18T14:29:11Z
2023-05-18T12:30:02Z,42.805,6.029,13.3014,4.60073,2470.6,2023-5-18T14:32:14Z
2023-05-18T12:33:05Z,42.805,6.029,13.3019,4.60074,2470.591,2023-5-18T14:35:17Z
2023-05-18T12:36:08Z,42.805,6.029,13.3018,4.60074,2470.591,2023-5-18T14:38:20Z
2023-05-18T12:39:11Z,42.805,6.029,13.3016,4.60074,2470.577,2023-5-18T14:41:23Z
2023-05-18T12:42:15Z,42.805,6.029,13.3019,4.60074,2470.577,2023-5-18T14:44:26Z
2023-05-18T12:45:18Z,42.805,6.029,13.3015,4.60074,2470.591,2023-5-18T14:47:29Z
2023-05-18T12:48:21Z,42.805,6.029,13.3018,4.60072,2470.591,2023-5-18T14:50:32Z
2023-05-18T12:51:24Z,42.805,6.029,13.3016,4.60073,2470.577,2023-5-18T14:53:36Z
2023-05-18T12:54:27Z,42.805,6.029,13.3015,4.60074,2470.577,2023-5-18T14:56:39Z
2023-05-18T12:57:30Z,42.805,6.029,13.3011,4.60076,2470.577,2023-5-18T14:59:42Z
2023-05-18T13:00:33Z,42.805,6.029,13.3020,4.60076,2470.614,2023-5-18T15:02:45Z
2023-05-18T13:03:36Z,42.805,6.029,13.3021,4.60078,2470.6,2023-5-18T15:05:48Z
2023-05-18T13:06:39Z,42.805,6.029,13.3015,4.60077,2470.614,2023-5-18T15:08:51Z
2023-05-18T13:09:42Z,42.805,6.029,13.3014,4.60073,2470.591,2023-5-18T15:11:54Z
2023-05-18T13:12:45Z,42.805,6.029,13.3017,4.60073,2470.614,2023-5-18T15:14:57Z
2023-05-18T13:15:48Z,42.805,6.029,13.3021,4.60074,2470.614,2023-5-18T15:18:00Z
2023-05-18T13:18:52Z,42.805,6.029,13.3017,4.60073,2470.614,2023-5-18T15:21:03Z
2023-05-18T13:21:55Z,42.805,6.029,13.3014,4.60073,2470.6,2023-5-18T15:24:06Z
2023-05-18T13:24:58Z,42.805,6.029,13.3021,4.60073,2470.591,2023-5-18T15:27:10Z
2023-05-18T13:28:01Z,42.805,6.029,13.3016,4.60073,2470.591,2023-5-18T15:30:13Z
2023-05-18T13:31:04Z,42.805,6.029,13.3020,4.60072,2470.614,2023-5-18T15:33:16Z
2023-05-18T13:34:07Z,42.805,6.029,13.3015,4.60072,2470.553,2023-5-18T15:36:19Z
2023-05-18T13:37:10Z,42.805,6.029,13.3022,4.60072,2470.591,2023-5-18T15:39:22Z
2023-05-18T13:40:13Z,42.805,6.029,13.3014,4.60073,2470.553,2023-5-18T15:42:25Z
2023-05-18T13:43:16Z,42.805,6.029,13.3015,4.60072,2470.553,2023-5-18T15:45:28Z
2023-05-18T13:46:19Z,42.805,6.029,13.3018,4.60073,2470.577,2023-5-18T15:48:31Z
2023-05-18T13:49:22Z,42.805,6.029,13.3018,4.60072,2470.637,2023-5-18T15:51:34Z
2023-05-18T13:52:26Z,42.805,6.029,13.3014,4.60072,2470.591,2023-5-18T15:54:37Z
2023-05-18T13:55:29Z,42.805,6.029,13.3015,4.60072,2470.577,2023-5-18T15:57:40Z
2023-05-18T13:58:32Z,42.805,6.029,13.3016,4.60072,2470.6,2023-5-18T16:00:43Z
2023-05-18T14:01:35Z,42.805,6.029,13.3014,4.60070,2470.553,2023-5-18T16:03:47Z
2023-05-18T14:04:38Z,42.805,6.029,13.3016,4.60071,2470.614,2023-5-18T16:06:50Z
2023-05-18T14:07:41Z,42.805,6.029,13.3019,4.60074,2470.577,2023-5-18T16:09:53Z
2023-05-18T14:10:44Z,42.805,6.029,13.3015,4.60073,2470.577,2023-5-18T16:12:56Z
2023-05-18T14:13:47Z,42.805,6.029,13.3019,4.60072,2470.577,2023-5-18T16:15:59Z
2023-05-18T14:16:50Z,42.805,6.029,13.3019,4.60071,2470.6,2023-5-18T16:19:02Z
2023-05-18T14:19:53Z,42.805,6.029,13.3015,4.60072,2470.6,2023-5-18T16:22:05Z
2023-05-18T14:22:56Z,42.805,6.029,13.3017,4.60074,2470.6,2023-5-18T16:25:08Z
2023-05-18T14:25:59Z,42.805,6.029,13.3015,4.60072,2470.614,2023-5-18T16:28:11Z
2023-05-18T14:29:03Z,42.805,6.029,13.3014,4.60072,2470.6,2023-5-18T16:31:14Z
2023-05-18T14:32:07Z,42.805,6.029,13.3015,4.60072,2470.614,2023-5-18T16:34:19Z
2023-05-18T14:35:10Z,42.805,6.029,13.3014,4.60072,2470.624,2023-5-18T16:37:22Z
2023-05-18T14:38:13Z,42.805,6.029,13.3014,4.60070,2470.6,2023-5-18T16:40:25Z
2023-05-18T14:41:16Z,42.805,6.029,13.3019,4.60072,2470.624,2023-5-18T16:43:28Z
2023-05-18T14:44:19Z,42.805,6.029,13.3017,4.60072,2470.624,2023-5-18T16:46:31Z
2023-05-18T14:47:22Z,42.805,6.029,13.3017,4.60070,2470.624,2023-5-18T16:49:34Z
2023-05-18T14:50:25Z,42.805,6.029,13.3014,4.60072,2470.646,2023-5-18T16:52:37Z
2023-05-18T14:53:28Z,42.805,6.029,13.3018,4.60071,2470.614,2023-5-18T16:55:40Z
2023-05-18T14:56:32Z,42.805,6.029,13.3014,4.60071,2470.661,2023-5-18T16:58:43Z
2023-05-18T14:59:35Z,42.805,6.029,13.3016,4.60072,2470.661,2023-5-18T17:01:46Z
2023-05-18T15:02:38Z,42.805,6.029,13.3021,4.60072,2470.637,2023-5-18T17:04:49Z
2023-05-18T15:05:41Z,42.805,6.029,13.3018,4.60073,2470.624,2023-5-18T17:07:53Z
2023-05-18T15:08:44Z,42.805,6.029,13.3017,4.60072,2470.6,2023-5-18T17:10:56Z
2023-05-18T15:11:47Z,42.805,6.029,13.3019,4.60072,2470.67,2023-5-18T17:13:59Z
2023-05-18T15:14:50Z,42.805,6.029,13.3019,4.60074,2470.633,2023-5-18T17:17:02Z